Regional Weather Roundup
Issued by NWS Austin/San Antonio, TX

Home | Current Version | Previous Version | Text Only | Print | Product List | Glossary On
Versions: 1 2 3 4 5 6 7 8 9 10 11 12 13 14 15 16 17 18 19 20 21 22 23 24 25 26 27 28 29 30 31 32 33 34 35 36 37 38 39 40 41 42 43 44 45 46 47 48 49 50
000
ASUS44 KEWX 250311
RWREWX
SOUTH TEXAS REGIONAL WEATHER ROUNDUP
NATIONAL WEATHER SERVICE AUSTIN/SAN ANTONIO TX
1000 PM CDT THU MAY 24 2018

NOTE: "FAIR" INDICATED FEW OR NO CLOUDS BELOW 12,000 FEET WITH NO
SIGNIFICANT WEATHER AND/OR OBSTRUCTIONS TO VISIBILITY.

* - THESE STATIONS ARE NOT NWS OR FAA STATIONS...AND ARE NOT SUBJECT
    TO NWS AND FAA QUALITY CONTROL.

TXZ171-172-183>190-250400-
TEXAS HILL COUNTRY AND EDWARDS PLATEAU

CITY           SKY/WX    TMP DP  RH WIND       PRES   REMARKS
JUNCTION       CLOUDY    82  63  52 S3        30.03R
*LLANO         CLEAR     81  66  61 SE3       30.03R
BURNET         CLEAR     80  66  62 CALM      30.03R
*HORSESHOE BAY CLEAR     81  66  61 SE6       30.01R
*KERRVILLE     MOCLDY    77  65  65 CALM      30.03R
*FREDERICKSBRG CLEAR     80  60  50 SE5       30.04R
*ROCKSPRINGS   CLOUDY    77  63  61 SE6       30.11R
*BOERNE STAGE  PTCLDY    79  63  57 SE6       30.04R
*CASTROVILLE   PTCLDY    82  67  60 SE7       30.01R
HONDO          MOCLDY    80  70  71 E5        29.99R
*UVALDE        MOCLDY    78  67  67 E5        29.99R
DEL RIO        CLOUDY    86  66  51 E10       29.97R
LAUGHLIN AFB   MOCLDY    84  66  54 E10       29.98R
CARRIZO SPRGS  PTCLDY    82  63  51 E5        29.95R
*EAGLE PASS    CLEAR     86  64  48 E9        29.98R
*FAITH RANCH   CLEAR     90  61  37 E6        29.96R
$$

TXZ173-191>194-202-209-217>225-228-250400-
CENTRAL AND SOUTH CENTRAL TEXAS

CITY           SKY/WX    TMP DP  RH WIND       PRES   REMARKS
GEORGETOWN     CLEAR     82  69  64 SE5       30.02R
AUSTIN/BERGSTM MOCLDY    82  70  66 SE6       29.99R
AUSTIN/MABRY   CLEAR     83  67  58 SE3       30.00R
*AUSTIN/EXEC   CLEAR     81  72  74 MISG      30.00S
*LAGO VISTA    CLEAR     81  67  64 SE5       30.02S
SAN MARCOS     CLEAR     77  70  79 SE6       30.01R
NEW BRAUNFELS  PTCLDY    78  70  76 SE7       29.98R
RANDOLPH AFB   PTCLDY    79  71  74 SE7       30.00R
PT SAN ANTONIO CLEAR     84  69  61 E10       29.98R
SAN ANTONIO    MOCLDY    82  68  62 SE10      30.00R
STINSON FIELD  CLEAR     83  71  67 SE7       29.97R
*LA GRANGE     CLEAR     77  74  88 CALM      29.99R
*GIDDINGS      CLEAR     76  69  78 CALM      30.02R
*GONZALES      CLEAR     81  73  76 MISG      29.99R
$$

TXZ163>164-176>182-195>201-210>213-226-227-235-250400-
SOUTHEAST TEXAS

CITY           SKY/WX    TMP DP  RH WIND       PRES   REMARKS
COLLEGE STN    PTCLDY    80  72  76 S8        30.01R
*BRYAN         PTCLDY    77  73  87 SE6       30.03R
*CALDWELL      CLEAR     77  69  76 S7        30.02R
*CROCKETT      CLEAR     77  70  78 CALM      30.05R
*BRENHAM       PTCLDY    79  71  77 S5        30.02R
HUNTSVILLE     CLEAR     81  71  71 CALM      30.01R
CONROE         CLEAR     76  75  97 CALM      30.02R
HOUSTON BUSH   FAIR      78  71  79 SE7       30.00R
HOUSTON HOBBY  FAIR      77  72  84 SE3       30.00R
*HOUSTON SW AP FAIR      73  71  93 CALM      30.02R
PEARLAND       FAIR      77  72  84 CALM      30.02R
HOUSTON HOOKS  FAIR      78  71  79 CALM      30.01R
ELLINGTON FLD  PTCLDY    77  72  83 E3        30.01R
SUGAR LAND     FAIR      78  71  79 S6        30.01R
*HOUSTON EXEC    N/A     75  72  88 S6        30.03R
*CLEVELAND MUN FAIR      73  71  92 CALM      30.03R
*WHARTON       CLEAR     75  72  90 E3        30.01R
*COLUMBUS      FAIR      75  73  92 E3        30.02R
*EAGLE LAKE    CLEAR     76  74  95 CALM      30.01R
$$

TXZ214>216-236>238-250400-
THE UPPER TEXAS COAST

CITY           SKY/WX    TMP DP  RH WIND       PRES   REMARKS
*ORANGE        FAIR      74  73  99 CALM      30.03S
PORT ARTHUR    FAIR      75  71  87 SE3       30.01R
GALVESTON      FAIR      79  74  84 SE8       30.02R
ANGLETON       FAIR      77  72  84 CALM      30.01R
*BAY CITY      CLEAR     76  73  90 CALM      30.01R
PALACIOS       CLEAR     78  76  93 SE5       30.00R
$$

TXZ229>234-239>247-250400-
TEXAS COASTAL BEND AND RIO GRANDE PLAINS

CITY           SKY/WX    TMP DP  RH WIND       PRES   REMARKS
VICTORIA       CLEAR     77  72  84 SE7       30.00R
*BEEVILLE      CLEAR     78  72  82 SE6       29.99R
ROCKPORT       PTCLDY    80  74  81 SE12      29.99R
*PORT ARANSAS  NOT AVBL
*PORT LAVACA   CLEAR     77  73  86 SE5       30.00R
*INGLESIDE     CLEAR     80  74  82 CALM      29.99R
CORPUS CHRISTI PTCLDY    78  75  90 SE5       29.98R
CORPUS NAS     PTCLDY    81  77  88 SE13      29.98R
*ROBSTOWN      CLEAR     78  74  87 SE3       29.99R
ALICE          CLEAR     78  72  81 SE6       29.98R
KINGSVILLE NAS PTCLDY    79  74  84 SE7       29.98R
COTULLA        PTCLDY    85  71  63 SE16      29.97R HX  90
LAREDO         MOCLDY    87  71  58 SE16      29.98R HX  93
$$

TXZ248>255-250400-
DEEP SOUTH TEXAS

CITY           SKY/WX    TMP DP  RH WIND       PRES   REMARKS
BROWNSVILLE    FAIR      81  77  88 SE6       29.99R
PORT ISABEL    FAIR      81  73  76 SE10      29.98R
*SOUTH PADRE   NOT AVBL
HARLINGEN      CLEAR     79  75  87 SE7       29.98R
*HEBBRONVILLE  CLEAR     80  69  67 SE9       30.01R
MCALLEN        CLEAR     85  73  67 SE13      29.98R HX  91
*WESLACO       NOT AVBL
FALFURRIAS       N/A     82  72  72 SE7       29.98R
EDINBURG       FAIR      82  73  72 SE7       29.99R
*ZAPATA        FAIR      84  69  60 E10       29.97R
$$

TXZ213>215-236>238-242>244-246-247-251-254-255-250400-
CMAN STATIONS

STATION/POSITION TIME  TEMP    WIND        PRES    WAVE
                       AIR SEA DIR/SP/G            HT/PER
                 (UTC) (F)     (DEG/KT/KT) (MB)    (FT/S)
SABINE PASS      0242   80 87  160/  6/  9 1017.9
SEA RIM ST PARK  0300   79     140/  5/  7 1016.8
NORTH JETTY/GLS  0242   80 83  130/  9/ 11 1015.7
EAGLE POINT      0248   80 84  170/ 11/ 11 1016.1
MORGANS POINT    0248   80 83  150/  4/  7 1016.1
PORT O`CONNOR    0248   80 84  130/ 11/ 12 1015.3
PORT ARANSAS     0300   80 83  110/ 13/ 13 1015.3
MALAQUITE BEACH  0236   81 85  100/ 13/ 15 1014.5
BAFFIN BAY       0248   80 87  130/  9/ 14 1015.1
PORT ISABEL      0236   81 84  110/ 10/ 12 1015.2
$$



USA.gov is the U.S. government's official web portal to all federal, state and local government web resources and services.